AirNav   Everest Fuels
 
 919 users online  

VA99 Federhart-Ophelia Airport
Reedville, Virginia, USA

GOING TO REEDVILLE?


FAA INFORMATION EFFECTIVE 25 MARCH 2021

Location

FAA Identifier: VA99
Lat/Long: 37-54-21.4630N 076-17-25.8000W
37-54.357717N 076-17.430000W
37.9059619,-76.2905000
(estimated)
Elevation: 13 ft. / 4 m (estimated)
Variation: 10W (1985)
From city: 4 miles N of REEDVILLE, VA
Time zone: UTC -4 (UTC -5 during Standard Time)
Zip code: 22473

Airport Operations

Airport use: Private use. Permission required prior to landing
Activation date: 02/1972
Control tower: no
ARTCC: WASHINGTON CENTER
FSS: LEESBURG FLIGHT SERVICE STATION
Attendance: UNATNDD
Wind indicator: yes
Segmented circle: no

Airport Communications

WX AWOS-3 at TGI (15 nm E): 119.8 (757-891-2246)
WX AWOS-3 at W75 (20 nm S): 118.45 (804-758-8592)

Nearby radio navigation aids

VOR radial/distance  VOR name  Freq  Var
PXTr177/23.5PATUXENT VORTAC117.6010W
HCMr043/33.9HARCUM VORTAC108.8007W
CCVr347/36.3CAPE CHARLES VORTAC112.2010W

 
NDB name  Hdg/Dist  Freq  Var  ID
PATUXENT177/23.440010WNHK -. .... -.-

Airport Services

Airframe service: NONE
Powerplant service: NONE

Runway Information

Runway N/S

Dimensions: 2200 x 80 ft. / 671 x 24 m
Surface: turf, in good condition
RUNWAY N  RUNWAY S
Traffic pattern: leftleft
Obstructions: 60 ft. trees, 150 ft. from runway
AND PLINE
70 ft. trees, 450 ft. from runway

Airport Ownership and Management from official FAA records

Ownership: Privately-owned
Owner: OPHELIA AIRSTRIP, LLC
C/O TRISTRAM HYDE, 278 TOLSTOY LANE
SEVERNA PARK, MD 21146-0247
Phone 240-278-0829
Manager: TRISTRAM HYDE
278 TOLSTOY LANE, 375 AIRSTRIP LANE
SEVERNA PARK, MD 21146-0247
Phone 240-278-0829

Airport Operational Statistics

Aircraft based on the field: 8
Single engine airplanes: 8
    
Aircraft operations: 125/year *
100% local general aviation
* for 12-month period ending 31 December 2020

Additional Remarks

DESIGNATED VA99.
FOR CD CTC WASHINGTON ARTCC AT 703-771-3587.
VFR DAY USE ONLY

Instrument Procedures

There are no published instrument procedures at VA99.

Some nearby airports with instrument procedures:

KTGI - Tangier Island Airport (15 nm E)
W75 - Hummel Field Airport (20 nm S)
W41 - Crisfield-Somerset County Airport (23 nm E)
KNHK - Patuxent River Naval Air Station (Trapnell Field) (24 nm N)
2W6 - St Mary's County Regional Airport (27 nm NW)
 
Loc | Ops | Rwys | IFR | FBO | Links
Com | Nav | Svcs | Stats | Notes
Area around VA99 (Federhart-Ophelia Airport)
 
Road maps at: MapQuest Bing Google
 
Aerial photo
WARNING: Photo may not be current or correct
Aerial photo of VA99 (Federhart-Ophelia Airport)
Photo taken 27-Mar-2006

Do you have a better or more recent aerial photo of Federhart-Ophelia Airport that you would like to share? If so, please send us your photo.

 
Sectional chart

 
Airport distance calculator
Flying to Federhart-Ophelia Airport? Find the distance to fly.

From to VA99

Sunrise and sunset
Times for 14-Apr-2021
 Local
(UTC-4)
 Zulu
(UTC)
Morning civil twilight06:0510:05
Sunrise06:3210:32
Sunset19:3923:39
Evening civil twilight20:0600:06

Current date and time
Zulu (UTC)  14-Apr-2021 12:35:49
Local (UTC-4)  14-Apr-2021 08:35:49
 
METAR
KTGI 
15nm E 
141215Z AUTO 22008KT 10SM CLR 13/10 A3013 RMK AO1 T01280102
KNUI 
16nm NW 
141153Z AUTO 22005KT 10SM CLR 14/09 A3011 RMK AO2 SLP197 T01390094 10139 20100 50012
KW75 
20nm S 
141215Z AUTO 20004KT 10SM CLR 11/10 A3013 RMK AO1 T01110098
KNHK 
22nm N 
141152Z 21008KT 10SM CLR 12/10 A3011 RMK AO2 SLP198 T01170100 10117 20083 50010
K2W6 
27nm NW 
141215Z AUTO 21003KT 10SM SCT100 11/08 A3013 RMK AO1
KXSA 
29nm W 
141215Z AUTO 00000KT 10SM CLR 10/10 A3012 RMK AO2 T00970097
TAF
KNHK 
22nm N 
1407/1507 VRB05KT 9999 SCT025 BKN060 BKN100 QNH3002INS FM141600 19007KT 9999 VCSH FEW015 BKN030 OVC050 QNH2999INS TEMPO 1417/1421 6000 -RA BR FEW008 BKN020 OVC040 BECMG 1421/1423 16012KT 8000 -RA BR BKN010 OVC020 QNH2991INS TEMPO 1423/1503 3200 RA BR BKN003 OVC010 FM150400 16010G20KT 8000 -RA BR BKN005 OVC010 QNH2986INS AUTOMATED SENSOR METWATCH 1407 TIL 1408 T10/1410Z T17/1418Z FN00216
NOTAMs
Click for the latest NOTAMs
NOTAMs are issued by the DoD/FAA and will open in a separate window not controlled by AirNav.

 

 
 

Would you like to see your business listed on this page?

 If your business provides an interesting product or service to pilots, flight crews, aircraft, or users of the Federhart-Ophelia Airport, you should consider listing it here.  To start the listing process, click on the button below
 
Add a business
 

Other Pages about Federhart-Ophelia Airport

Update a link
 
Copyright © AirNav, LLC. All rights reserved. Privacy Policy  Contact